Flag for Trinidad and Tobago Weather past 2 weeks in Port of Spain, Trinidad and Tobago

Now
77 °F

Passing clouds.


Feels Like: 78 °F
Forecast: 79 / 88 °F
Wind: No wind

Location: Piarco International Airport - Trinidad

Current Time: Sep 19, 2014 at 12:35:20 AM

Latest Report: Sep 19, 2014 at 12:00 AM


Visibility: N/A

Pressure: 29.89 "Hg

Humidity: 89%

Dew point: 73 °F

Location of Port of SpainLocation

Historic Weather in Port of Spain — Graph

°F

Port of Spain temperature yesterday

Maximum temperature yesterday: 90 °F (at 10:00 AM)
Minimum temperature yesterday: 75 °F (at 5:00 AM)
Average temperature yesterday: 80 °F

Past Weeks' High & Low Weather Summary

 TemperatureHumidityPressure
High93 °F (Sep 4, 1:00 PM)100% (Sep 4, 6:00 AM)30.01 "Hg (Sep 4, 6:00 AM)
Low75 °F (Sep 4, 4:00 AM)49% (Sep 4, 1:00 PM)29.80 "Hg (Sep 10, 5:00 PM)
Average82 °F79%29.90 "Hg
* Reported Sep 3 11:00 PM — Sep 18 11:00 PM, Port of Spain, Weather by CustomWeather, © 2014

Note: Actual official high and low records may vary slightly from our data, if they occured in-between our weather recording intervals... More about our weather records

Advertising

Port of Spain weather history for previous 24 hours

 ConditionsComfort  
Time TempWeatherWind HumidityBarometerVisibility
11:00 PM
Sep 18
77 °FPassing clouds.No wind94%29.92 "HgN/A
10:00 PM77 °FPassing clouds.No wind94%29.89 "HgN/A
9:00 PM77 °FPassing clouds.No wind94%29.89 "HgN/A
8:00 PM77 °FPassing clouds.No wind94%29.89 "HgN/A
7:00 PM79 °FPassing clouds.No wind89%29.86 "HgN/A
6:00 PM81 °FLight rain. Passing clouds.7 mph84%29.86 "HgN/A
5:00 PM82 °FPassing clouds.No wind79%29.83 "HgN/A
4:00 PM82 °FScattered clouds.No wind74%29.83 "HgN/A
3:00 PM81 °FThunderstorms. Passing clouds.No wind84%29.83 "Hg4 mi
2:00 PM82 °FThunderstorms. Scattered clouds.7 mph74%29.86 "Hg4 mi
1:00 PM84 °FScattered clouds.7 mph70%29.86 "HgN/A
12:00 PM88 °FScattered clouds.13 mph66%29.89 "HgN/A
11:00 AM88 °FScattered clouds.13 mph66%29.92 "HgN/A
10:00 AM90 °FScattered clouds.7 mph67%29.92 "HgN/A
9:00 AM88 °FScattered clouds.6 mph66%29.92 "HgN/A
8:00 AM84 °FPassing clouds.No wind79%29.92 "HgN/A
7:00 AM79 °FPassing clouds.No wind89%29.89 "HgN/A
6:00 AM75 °FPassing clouds.No wind100%29.86 "HgN/A
5:00 AM75 °FPassing clouds.No wind94%29.86 "HgN/A
4:00 AM77 °FPassing clouds.No wind94%29.86 "HgN/A
3:00 AM77 °FPassing clouds.No wind94%29.86 "HgN/A
2:00 AM77 °FPassing clouds.No wind94%29.86 "HgN/A
1:00 AM77 °FPassing clouds.No wind94%29.86 "HgN/A
12:00 AM77 °FPassing clouds.No wind94%29.89 "HgN/A
Weather by CustomWeather, © 2014

See weather overviewHow to use our weather pages